Location: Mapua
(41.2500°S, 173.1000°E)
Time: 19:44:39
(UTC+12:00)

N. Korean satellite - Visible Passes

Search period start: 17 August 2017 00:00
Search period end: 27 August 2017 00:00
Orbit: 462 x 516 km, 97.2° (Epoch: 16 August)

Date Brightness Start Highest point End Pass type
(mag) Time Alt. Az. Time Alt. Az. Time Alt. Az.
17 Aug 10.0 05:22:22 10° E 05:23:25 11° ESE 05:24:29 10° SE visible
17 Aug 8.4 18:22:06 10° ESE 18:23:35 12° E 18:25:03 10° ENE visible
17 Aug 8.0 19:54:24 12° S 19:57:18 37° WSW 20:00:33 10° NW visible
18 Aug 6.8 06:29:45 10° NNE 06:33:27 76° ESE 06:37:08 10° S visible
18 Aug 6.5 19:30:46 10° S 19:34:19 78° WSW 19:37:48 10° NNW visible
19 Aug 8.2 06:07:02 10° NE 06:10:28 37° ESE 06:13:53 10° S visible
19 Aug 6.6 19:07:48 10° SSE 19:11:15 49° E 19:14:39 10° N visible
19 Aug 10.0 20:43:49 10° SW 20:44:20 10° WSW 20:44:50 10° WSW visible
20 Aug 9.4 05:44:47 10° ENE 05:47:32 20° ESE 05:50:18 10° SSE visible
20 Aug 7.6 18:45:09 10° SE 18:48:06 24° E 18:51:00 10° NNE visible
20 Aug 9.2 20:18:57 10° SSW 20:21:29 19° WSW 20:24:00 10° WNW visible
21 Aug 10.0 05:23:31 10° E 05:24:42 11° ESE 05:25:52 10° SE visible
21 Aug 8.4 18:23:13 10° ESE 18:24:52 13° E 18:26:30 10° ENE visible
21 Aug 8.1 19:55:19 10° S 19:58:34 35° WSW 20:01:47 10° NW visible
22 Aug 6.8 06:31:04 10° NNE 06:34:44 80° ESE 06:38:23 10° S visible
22 Aug 6.6 19:32:02 10° S 19:35:34 74° WSW 19:39:03 10° NNW visible
23 Aug 8.2 06:08:18 10° NE 06:11:44 39° ESE 06:15:08 10° S visible
23 Aug 6.6 19:09:01 10° SSE 19:12:29 51° E 19:15:55 10° N visible
24 Aug 9.4 05:46:01 10° ENE 05:48:47 21° ESE 05:51:34 10° SSE visible
24 Aug 7.5 18:46:21 10° SE 18:49:20 25° E 18:52:19 10° NNE visible
24 Aug 9.3 20:20:14 10° SSW 20:22:42 18° WSW 20:25:10 10° WNW visible
25 Aug 9.9 05:24:40 10° E 05:25:56 12° ESE 05:27:12 10° SE visible
25 Aug 8.3 18:24:18 10° ESE 18:26:06 13° E 18:27:55 10° ENE visible
25 Aug 8.2 19:56:33 10° S 19:59:47 34° WSW 20:02:59 10° NW visible
26 Aug 6.7 19:33:14 10° S 19:36:46 70° WSW 19:40:17 10° NNW visible
